Location: Crocus Hill
(18.2167°N, 63.0667°W)
Time: 05:53:28
(UTC+00:00)

Daily predictions for brighter satellites

Satellite Brightness Start Highest point End
(mag) Time Altitude Azimuth Time Altitude Azimuth Time Altitude Azimuth
Cosmos 1452 Rocket 4.4 00:05:12 10° SSW 00:08:29 40° S 00:08:29 40° S
SL-16 R/B 4.0 00:07:57 10° NW 00:12:48 30° WSW 00:17:38 10° SSW
Atlas Centaur 2 3.9 00:09:37 10° NW 00:11:28 19° NNW 00:11:28 19° NNW
Cosmos 2221 4.4 00:10:35 10° NNW 00:14:17 29° W 00:18:00 10° SSW
SL-4 R/B 4.3 00:18:39 10° SW 00:20:36 24° SW 00:20:36 24° SW
Cosmos 1844 Rocket 4.4 00:27:47 10° SSW 00:29:58 25° SSW 00:29:58 25° SSW
ATLAS 3B R/B 3.8 00:47:57 10° SW 00:53:16 37° W 00:53:16 37° W
Milstar 3 4.4 07:47:56 41° SSW 07:52:33 55° SSE 08:01:28 10° E
SL-16 R/B 3.7 08:10:14 31° ENE 08:10:14 31° ENE 08:13:51 10° NE
Milstar 3 Cent rocket 4.5 08:29:27 44° W 08:37:28 74° NNW 08:48:10 10° ENE
CZ-3 R/B 3.7 08:30:24 41° WNW 08:38:24 57° N 08:47:06 10° ENE
Intelsat 5-3 Rocket 4.1 08:44:26 58° W 08:46:23 81° SSW 09:05:11 10° ESE
BREEZE M DEB (TANK) 4.5 08:48:41 50° W 08:51:01 65° NW 09:18:19 10° NE
GPS 2-15 Rocket1 3.3 08:55:33 64° ENE 08:55:33 64° ENE 08:59:34 10° E
Meteor 2-10 4.1 08:50:13 10° S 08:55:50 82° E 09:01:17 10° N
OAO 3 Copernicus 4.4 09:01:05 58° SSW 09:01:05 58° SSW 09:05:55 10° SE
Cosmos 2184 Rocket 4.3 09:03:01 44° WSW 09:03:01 44° WSW 09:08:03 10° SSW
Delta 128 3.4 09:02:26 83° E 09:02:26 83° E 09:06:48 10° ESE
Cosmos 2322 Rocket 2.1 09:04:34 10° SSW 09:10:07 62° WNW 09:15:43 10° N
Cosmos 2154 Rocket 3.8 09:06:34 19° NNW 09:11:10 70° W 09:17:21 10° S
METEOR-M 4.3 09:06:38 10° NNE 09:11:57 71° ESE 09:17:16 10° S
Cosmos 2082 4.0 09:12:37 44° WSW 09:12:41 44° WSW 09:18:04 10° S
Cosmos 1295 Rocket 4.4 09:08:20 10° N 09:14:27 89° E 09:20:32 10° S
Cosmos 44 Rocket 3.2 09:17:28 51° WNW 09:18:21 62° WSW 09:23:08 10° SSE
Cosmos 2297 Rocket 4.3 09:21:56 11° SW 09:21:56 11° SW 09:22:16 10° SW
Meteosat 1 Rocket2 3.6 09:24:06 35° NNW 09:24:09 35° NNW 09:27:36 10° NE
Hubble Space Telescope 2.7 09:21:58 11° SSW 09:25:14 26° SSE 09:28:43 10° E
SJ-12 3.8 09:21:19 10° N 09:25:21 65° WNW 09:29:24 10° SSW
MOS 1-B 4.2 09:21:29 10° N 09:27:16 79° WNW 09:33:03 10° SSW
Cosmos 2263 Rocket 3.8 09:22:20 10° N 09:27:25 33° ENE 09:32:29 10° SE
Skynet4D Del rocket 3.9 09:27:10 33° WNW 09:29:41 55° NNW 09:35:09 10° ENE
CZ-4B DEB 4.1 09:25:33 10° N 09:31:03 81° WNW 09:36:32 10° SSW
Cosmos 2227 Rocket 4.2 09:34:20 11° SW 09:34:20 11° SW 09:34:33 10° SW
NOAA 6 4.4 09:27:10 10° NNE 09:32:19 66° ESE 09:37:27 10° S
ATLAS 2A CENTAUR R/B 1.8 09:32:20 32° NNW 09:32:41 33° N 09:37:36 10° ENE
Meteor 2-17 Rocket 4.4 09:27:57 10° NNW 09:33:52 59° W 09:39:46 10° S
Cosmos 1953 Rocket 3.8 09:32:30 10° N 09:36:51 69° E 09:41:09 10° SSE
Cosmos 962 Rocket 4.5 09:30:37 10° N 09:36:55 70° W 09:43:14 10° S
Cosmos 482 Debris 4.3 09:38:00 30° N 09:38:00 30° N 09:39:17 10° NNE
Meteor 1-21 Rocket 4.4 09:33:39 10° NNW 09:39:25 57° W 09:45:11 10° S
USA 238 DEB 3.9 09:32:05 10° NNW 09:39:29 85° WSW 09:47:00 10° SSE
USA 238 3.9 09:32:11 10° NNW 09:39:35 85° WSW 09:47:06 10° SSE
NOSS 2 (A) 4.0 09:40:11 58° W 09:40:23 61° WSW 09:43:09 10° SSE
Cosmos 1758 Rocket 3.7 09:37:10 13° NNW 09:40:58 50° W 09:45:18 10° SSW
Cosmos 1300 4.2 09:37:25 10° SSE 09:40:59 39° E 09:44:33 10° NNE
ALOS 2.5 09:38:56 10° N 09:43:19 43° WNW 09:47:43 10° SSW
Helios 1A Rocket 3.3 09:43:39 10° NNE 09:47:46 67° ESE 09:51:52 10° S
Cosmos 972 Rocket 4.1 09:46:44 10° NNW 09:52:07 57° W 09:57:02 10° S
SL-16 R/B 3.4 09:52:24 18° WNW 09:52:44 18° WNW 09:56:31 10° NNW
Cosmos 1174 4.1 09:48:13 10° SSW 09:53:26 88° ESE 09:57:31 10° NNE
SL-16 Debris 4.3 09:52:56 21° W 09:55:04 59° SSW 10:03:20 10° ESE
Cosmos 2360 Rocket 2.4 09:50:01 10° SW 09:55:28 49° WNW 10:00:56 10° N
Cosmos 1908 4.3 09:54:12 10° SW 09:57:21 23° W 10:00:29 10° NNW
Cosmos 2322 3.8 09:52:22 10° SSW 09:58:03 85° ESE 10:03:43 10° NNE
H-2A R/B 3.9 09:54:52 10° NNE 09:58:35 47° E 10:02:15 10° S
Cosmos 2219 Rocket 3.5 09:54:04 10° S 09:59:23 44° ESE 10:04:43 10° NNE
FENGYUN 3A 4.3 09:56:15 10° NNW 10:01:00 32° WNW 10:05:47 10° SW
Cosmos 2058 Rocket 3.9 09:57:26 10° SW 10:01:10 27° W 10:04:53 10° NNW
Cosmos 1825 Rocket 4.4 10:00:02 10° NNW 10:03:47 28° W 10:07:33 10° SSW
RESURS DK-1 3.9 10:03:24 15° W 10:04:08 15° WNW 10:06:33 10° NNW
SL-8 Rocket 4.0 09:58:51 10° NNW 10:04:54 62° W 10:10:57 10° S
GPS 2-04 Rocket1 2.4 10:05:54 10° SW 10:09:20 78° SSE 10:12:55 10° ENE
Cosmos 1328 4.0 10:06:18 10° NNW 10:10:06 46° W 10:13:52 10° SSW
Okean O Rocket 2.0 10:06:29 10° N 10:10:36 40° WNW 10:14:42 10° SW
COSMO-SKYMED 1 3.1 10:09:46 10° SSW 10:13:47 38° W 10:17:49 10° NNW
ADEOS Rocket 3.9 10:13:46 10° SSE 10:18:59 45° ENE 10:24:13 10° N
CZ-4B R/B 3.6 10:15:05 10° N 10:20:05 40° WNW 10:25:02 10° SW
Alouette 2 Rocket 4.0 10:14:36 10° SSW 10:20:49 61° W 10:25:02 10° N
SEDSat Delta rocket 3.8 10:17:26 10° WNW 10:23:49 86° NNE 10:29:23 10° ESE
COSMOS 2428 2.9 10:20:01 10° SSW 10:25:42 81° ESE 10:31:24 10° NNE
Nadezhda 3 Rocket 4.0 10:20:14 10° SSW 10:26:18 69° W 10:32:26 10° N
ATLAS 3B R/B 3.3 10:22:27 10° NNW 10:29:14 62° ENE 10:36:16 10° SE
